Voltar ao catálogo

STARLINK-3569

AtivoComunicaçõesVLEO
NORAD 51811·PAYLOAD·🇺🇸 United States

Lançado Feb 25, 2022 de Vandenberg Space Force Base

Loading…

Próximas Passagens (próximas 24 horas)

TLE

AtualizadoSource: CelesTrak SupGP

Época: Sep 15, 2026, 01:59 UTC

1 51811C 22017AV  26258.08312500 -.00015312  00000+0 -45250-3 0  2580
2 51811  53.1581 195.1512 0001408  82.2070 216.3143 15.34390466    19

Acompanhe STARLINK-3569 em tempo real com AllMySat

Download on the App Store